Weather History for Big Sandy Reg AP, Prestonsbur, KY

Change the Weather History Date:

Monday, January 13, 2014

  Actual Average Record
Temperature  
Mean Temperature 46 °F -  
Max Temperature 53 °F - - ()
Min Temperature 40 °F - - ()
Degree Days  
Heating Degree Days 18    
Moisture  
Dew Point 35 °F    
Average Humidity 69    
Maximum Humidity 95    
Minimum Humidity 45    
Precipitation  
Precipitation 0.00 in - - ()
Sea Level Pressure  
Sea Level Pressure 29.90 in    
Wind  
Wind Speed 7 mph (South)    
Max Wind Speed 16 mph    
Max Gust Speed 24 mph    
Visibility 10 miles    
Events Rain    
T = Trace of Precipitation, MM = Missing Value Source: NWS Daily Summary

Daily Weather History Graph

Daily Weather History Graph

Search for Another Location

Airport:

Trip Planner

Search our weather history database for the weather conditions in past years. The results will help you decide how hot, cold, wet, or windy it might be!

Date:

Astronomy

Jan. 13, 2014 Rise Set
Actual Time 7:45 AM EST 5:33 PM EST
Civil Twilight 7:16 AM EST 6:02 PM EST
Nautical Twilight 6:44 AM EST 6:34 PM EST
Astronomical Twilight 6:12 AM EST 7:06 PM EST
Moon 3:47 PM EST (1/13) 5:33 AM EST (1/13)
Length of Visible Light 10h 45m
Length of Day
9h 48m
Waxing Gibbous, 95% of the Moon is Illuminated
Jan 13
Waxing Gibbous
Jan 15
Full
Jan 24
Last Quarter
Jan 30
New
Feb 6
First Quarter

Hourly Weather History & Observations

Time (EST) Temp. Windchill Dew Point Humidity Pressure Visibility Wind Dir Wind Speed Gust Speed Precip Events Conditions
12:15 AM 42.3 °F 37.9 °F 29.1 °F 60% 30.02 in 10.0 mi South 6.9 mph - N/A   Clear
12:35 AM 42.3 °F 39.4 °F 29.1 °F 60% 30.00 in 10.0 mi SSE 4.6 mph - N/A   Clear
12:55 AM 41.7 °F 38.8 °F 28.9 °F 61% 30.00 in 10.0 mi South 4.6 mph - N/A   Clear
1:15 AM 41.9 °F 36.9 °F 28.8 °F 60% 29.99 in 10.0 mi South 8.1 mph - N/A   Clear
1:35 AM 42.1 °F 38.4 °F 28.2 °F 58% 29.99 in 10.0 mi South 5.8 mph - N/A   Clear
1:55 AM 41.9 °F 38.2 °F 27.9 °F 58% 29.99 in 10.0 mi South 5.8 mph - N/A   Clear
2:15 AM 41.7 °F 38.0 °F 27.5 °F 57% 29.98 in 10.0 mi SSE 5.8 mph - N/A   Clear
2:35 AM 40.6 °F 37.5 °F 27.5 °F 59% 29.99 in 10.0 mi South 4.6 mph - N/A   Clear
2:55 AM 40.8 °F 38.8 °F 27.5 °F 59% 29.98 in 10.0 mi South 3.5 mph - N/A   Clear
3:15 AM 40.3 °F 37.1 °F 27.5 °F 60% 29.99 in 10.0 mi SSE 4.6 mph - N/A   Clear
3:35 AM 40.3 °F 37.1 °F 27.5 °F 60% 29.99 in 10.0 mi SSE 4.6 mph - N/A   Clear
3:55 AM 40.1 °F 36.1 °F 28.0 °F 62% 29.97 in 10.0 mi SSE 5.8 mph - N/A   Clear
4:15 AM 41.2 °F 36.6 °F 27.5 °F 58% 29.97 in 10.0 mi SSE 6.9 mph - N/A   Clear
4:35 AM 41.7 °F 38.8 °F 27.5 °F 57% 29.98 in 10.0 mi SSW 4.6 mph - N/A   Clear
4:55 AM 41.9 °F 37.5 °F 27.9 °F 58% 29.97 in 10.0 mi SSE 6.9 mph - N/A   Clear
5:15 AM 40.8 °F 37.8 °F 27.9 °F 60% 29.97 in 10.0 mi SSW 4.6 mph - N/A   Clear
5:35 AM 41.4 °F 38.4 °F 27.5 °F 58% 29.97 in 10.0 mi South 4.6 mph - N/A   Clear
5:55 AM 40.5 °F - 27.5 °F 60% 29.97 in 10.0 mi Calm Calm - N/A   Clear
6:15 AM 41.7 °F 38.8 °F 27.3 °F 57% 29.97 in 10.0 mi South 4.6 mph - N/A   Clear
6:35 AM 41.4 °F 39.4 °F 27.9 °F 59% 29.97 in 10.0 mi South 3.5 mph - N/A   Clear
6:55 AM 41.9 °F 38.2 °F 27.5 °F 57% 29.97 in 10.0 mi South 5.8 mph - N/A   Clear
7:15 AM 42.3 °F 39.4 °F 28.4 °F 58% 29.96 in 10.0 mi South 4.6 mph - N/A   Clear
7:35 AM 41.0 °F 38.0 °F 28.4 °F 61% 29.95 in 10.0 mi SSE 4.6 mph - N/A   Clear
7:55 AM 42.3 °F 37.9 °F 27.7 °F 56% 29.94 in 10.0 mi SSE 6.9 mph - N/A   Clear
8:15 AM 44.1 °F 40.8 °F 28.2 °F 54% 29.93 in 10.0 mi SSE 5.8 mph - N/A   Clear
8:35 AM 45.1 °F 41.4 °F 28.6 °F 52% 29.92 in 10.0 mi South 6.9 mph - N/A   Clear
8:55 AM 45.9 °F 41.2 °F 29.1 °F 52% 29.95 in 10.0 mi South 9.2 mph - N/A   Clear
9:15 AM 46.4 °F 41.5 °F 29.1 °F 51% 29.94 in 10.0 mi South 10.4 mph - N/A   Clear
9:35 AM 47.1 °F - 30.0 °F 51% 29.95 in 10.0 mi South 10.4 mph - N/A   Clear
9:55 AM 48.0 °F - 30.7 °F 51% 29.94 in 10.0 mi SW 3.5 mph - N/A   Clear
10:15 AM 48.0 °F - 30.9 °F 52% 29.95 in 10.0 mi SSW 6.9 mph - N/A   Clear
10:35 AM 49.3 °F - 31.1 °F 50% 29.95 in 10.0 mi South 10.4 mph - N/A   Scattered Clouds
10:55 AM 49.5 °F - 31.5 °F 50% 29.94 in 10.0 mi SSW 9.2 mph - N/A   Mostly Cloudy
11:15 AM 51.8 °F - 31.6 °F 46% 29.92 in 10.0 mi SSW 9.2 mph - N/A   Mostly Cloudy
11:30 AM 52.2 °F - 31.6 °F 46% 29.93 in 10.0 mi SW 11.5 mph - N/A   Overcast
11:55 AM 53.1 °F - 32.0 °F 45% 29.91 in 10.0 mi SSW 13.8 mph 20.7 mph N/A   Overcast
12:15 PM 52.5 °F - 34.2 °F 50% 29.89 in 10.0 mi SW 16.1 mph 24.2 mph N/A   Light Drizzle
12:35 PM 51.3 °F - 36.7 °F 57% 29.89 in 10.0 mi SW 9.2 mph - N/A Rain Rain
12:55 PM 52.0 °F - 36.7 °F 56% 29.88 in 10.0 mi SW 8.1 mph - N/A Rain Light Rain
1:15 PM 51.3 °F - 38.7 °F 62% 29.89 in 10.0 mi SW 9.2 mph 19.6 mph N/A Rain Light Rain
1:35 PM 50.9 °F - 39.4 °F 65% 29.89 in 10.0 mi WSW 11.5 mph - N/A   Light Drizzle
1:55 PM 50.0 °F - 40.6 °F 70% 29.89 in 10.0 mi WSW 12.7 mph 16.1 mph N/A Rain Rain
2:15 PM 49.3 °F - 41.2 °F 74% 29.89 in 10.0 mi SW 6.9 mph - N/A Rain Light Rain
2:35 PM 48.7 °F - 41.9 °F 77% 29.88 in 10.0 mi SSW 5.8 mph - N/A Rain Light Rain
2:50 PM 48.7 °F - 42.1 °F 78% 29.88 in 10.0 mi SSW 9.2 mph 16.1 mph N/A Rain Rain
3:15 PM 48.7 °F - 42.1 °F 78% 29.87 in 10.0 mi SSW 11.5 mph - N/A   Light Drizzle
3:35 PM 48.7 °F - 41.9 °F 77% 29.86 in 10.0 mi SSW 11.5 mph - N/A   Drizzle
3:55 PM 48.2 °F - 42.1 °F 79% 29.86 in 10.0 mi SSW 10.4 mph - N/A   Drizzle
4:15 PM 47.7 °F - 42.4 °F 82% 29.85 in 10.0 mi South 9.2 mph - N/A Rain Rain
4:35 PM 46.9 °F - 42.8 °F 86% 29.86 in 7.0 mi South 8.1 mph - N/A Rain Rain
4:55 PM 46.8 °F - 43.3 °F 88% 29.84 in 5.0 mi South 10.4 mph - N/A Rain Heavy Rain
5:15 PM 46.6 °F - 43.9 °F 90% 29.85 in 5.0 mi South 10.4 mph - N/A Rain Light Rain
5:35 PM 46.0 °F 41.0 °F 44.2 °F 93% 29.84 in 5.0 mi South 10.4 mph - N/A Rain Light Rain
5:55 PM 46.0 °F 41.9 °F 44.1 °F 93% 29.83 in 10.0 mi SSE 8.1 mph - N/A   Drizzle
6:15 PM 46.0 °F 41.0 °F 44.6 °F 95% 29.83 in 10.0 mi South 10.4 mph - N/A   Drizzle
6:35 PM 46.4 °F 41.9 °F 44.6 °F 93% 29.82 in 7.0 mi SSE 9.2 mph - N/A   Drizzle
6:55 PM 46.4 °F 42.4 °F 44.8 °F 94% 29.83 in 10.0 mi South 8.1 mph - N/A Rain Rain
7:15 PM 46.4 °F 41.9 °F 44.8 °F 94% 29.83 in 10.0 mi South 9.2 mph - N/A   Drizzle
7:35 PM 46.4 °F 41.9 °F 44.6 °F 93% 29.82 in 10.0 mi South 9.2 mph - N/A Rain Light Rain
7:55 PM 46.6 °F - 44.1 °F 91% 29.81 in 10.0 mi South 9.2 mph 16.1 mph N/A   Light Drizzle
8:15 PM 46.8 °F - 42.8 °F 86% 29.80 in 10.0 mi South 9.2 mph - N/A   Overcast
8:35 PM 46.8 °F - 42.4 °F 85% 29.80 in 10.0 mi South 9.2 mph - N/A   Overcast
8:55 PM 46.6 °F - 42.3 °F 85% 29.80 in 10.0 mi South 8.1 mph - N/A   Light Drizzle
9:15 PM 46.4 °F 43.5 °F 42.1 °F 85% 29.80 in 10.0 mi SSW 5.8 mph - N/A   Overcast
9:35 PM 46.4 °F 44.3 °F 41.9 °F 84% 29.80 in 10.0 mi SSW 4.6 mph - N/A Rain Rain
9:55 PM 45.9 °F 42.9 °F 42.6 °F 88% 29.80 in 10.0 mi South 5.8 mph - N/A Rain Light Rain
10:15 PM 45.5 °F 43.2 °F 42.8 °F 90% 29.80 in 10.0 mi South 4.6 mph - N/A Rain Rain
10:35 PM 45.5 °F 43.2 °F 42.4 °F 89% 29.80 in 7.0 mi South 4.6 mph - N/A Rain Light Rain
10:55 PM 45.5 °F 42.5 °F 42.4 °F 89% 29.80 in 10.0 mi South 5.8 mph - N/A Rain Rain
11:15 PM 45.1 °F 42.0 °F 43.0 °F 92% 29.80 in 7.0 mi SSW 5.8 mph - N/A   Drizzle
11:35 PM 45.5 °F 42.5 °F 43.0 °F 91% 29.80 in 10.0 mi SSW 5.8 mph - N/A   Drizzle
11:55 PM 45.5 °F 41.8 °F 43.3 °F 92% 29.79 in 7.0 mi SSW 6.9 mph - N/A   Drizzle